CZ-4B R/B - Orbit

View from above orbital plane
View from above orbital plane
View from above satellite
View from above satellite

Ground track
Ground track

The orbit data is extracted from the following two-line orbital elements,

1 27432U 02024C   13168.82266392  .00000009  00000-0  27517-4 0  7503
2 27432 098.7764 130.3351 0050152 215.0765 200.7841 14.13791258572429
Epoch (UTC): 17 June 2013 19:44:38
Eccentricity: 0.0050152
inclination: 98.7764°
perigee height: 810 km
apogee height: 882 km
right ascension of ascending node: 130.3351°
argument of perigee: 215.0765°
revolutions per day: 14.13791258
mean anomaly at epoch: 200.7841°
orbit number at epoch: 57242

The dashed part of the orbit path shows where the satellite is in the earth's shadow,  

Developed and maintained by Chris Peat, Heavens-Above GmbH. Please read the updated FAQ before sending e-mail. Imprint. DLR